Location: Peterborough
(44.3091°N, 78.3197°W)
Time: 23:33:09
(UTC-04:00)

Tiangong - Pass Details

Date: 18 March 2026
Orbit: 376 x 385 km, 41.5° (Epoch: 20 April)

Event Time Altitude Azimuth Distance (km) Brightness Sun altitude
Exits shadow 06:25:48 17° 256° (WSW) 1,071 -0.6 -10.5°
Maximum altitude 06:27:59 46° 187° (S) 523 -1.6 -10.1°
Drops below altitude 10° 06:31:03 10° 112° (ESE) 1,406 1.7 -9.6°
Sets 06:33:10 0° 106° (ESE) 2,262 3.1 -9.2°
